Regional Weather Roundup
Issued by NWS

Home | Current Version | Previous Version | Text Only | Print | Product List | Glossary On
Versions: 1 2 3 4 5 6 7 8 9 10 11 12 13 14 15 16 17 18 19 20 21 22 23 24 25 26 27 28 29 30 31 32 33 34 35 36 37 38 39 40 41 42 43 44 45 46 47 48 49 50
000
ASUS43 KTOP 080508
RWRKS

WEATHER ROUNDUP FOR KANSAS
NATIONAL WEATHER SERVICE GOODLAND KS
1100 PM CST SUN FEB 07 2016

NOTE:  "FAIR" INDICATES FEW OR NO CLOUDS BELOW 12,000 FEET WITH NO
SIGNIFICANT WEATHER AND/OR OBSTRUCTIONS TO VISIBILITY.

KSZ001>006-013>018-027>032-041>047-080600-
NORTHWEST KANSAS

CITY           SKY/WX    TMP DP  RH WIND       PRES   REMARKS
GOODLAND       CLOUDY    28  15  58 NW20      30.32S WCI  15
HAYS           CLEAR     34  14  44 NW23G31   30.25R WCI  22
HILL CITY      CLEAR     32  18  56 NW18G25   30.27R WCI  20
RUSSELL        CLEAR     32  21  64 W14       30.22R WCI  22
$$

KSZ061>065-074>080-084>089-080600-
SOUTHWEST KANSAS

CITY           SKY/WX    TMP DP  RH WIND       PRES   REMARKS
DODGE CITY     PTCLDY    34  14  43 NW20G31   30.31R WCI  23
ELKHART          N/A     30  12  47 NW16        N/A  WCI  19
GARDEN CITY    CLOUDY    33  16  49 NW14      30.34R WCI  23
GREAT BEND     CLEAR     34  18  51 NW18G24   30.26R WCI  23
LIBERAL        PTCLDY    28  10  47 NW9       30.37S
PRATT          CLEAR     31  17  54 NW17      30.26R WCI  20
$$

KSZ066>073-081>083-090>101-080600-
SOUTHEAST KANSAS

CITY           SKY/WX    TMP DP  RH WIND       PRES   REMARKS
CHANUTE        CLEAR     37  21  52 W12       30.10F WCI  29
COFFEYVILLE    CLEAR     40  21  46 W12       30.14S WCI  33
HUTCHINSON     CLEAR     36  20  52 NW17      30.21R WCI  26
MEDICINE LODGE   N/A     37  17  44 NW14G25   30.26S WCI  28
NEWTON         CLEAR     34  19  55 NW16      30.18R WCI  23
PARSONS        CLEAR     37  21  52 W8        30.13S
WICHITA INTL   CLEAR     38  20  48 NW18      30.19S WCI  28
WICHITA JABRA  CLEAR     36  20  52 W14       30.18R WCI  27
WICHITA MCCONL CLEAR     38  19  46 NW14      30.18R WCI  30
WINFIELD       CLEAR     36  21  54 NW13      30.20S WCI  27
$$

KSZ007>012-019>026-033>040-048>060-102>105-080600-
NORTHEAST KANSAS

CITY           SKY/WX    TMP DP  RH WIND       PRES   REMARKS
CONCORDIA      CLEAR     35  20  54 NW16      30.15R WCI  25
EMPORIA        CLEAR     34  22  61 NW12      30.10S WCI  25
LAWRENCE       FLURRIES  38  27  64 NW23G31   30.05S WCI  27
MANHATTAN      CLEAR     37  21  52 W10G18    30.13R WCI  30
MARYSVILLE     CLOUDY    36  25  64 NW18G25   30.07R WCI  25
OLATHE IND     CLOUDY    37  27  67 N16       30.04S WCI  28
OLATHE EXE     CLOUDY    38  24  57 NW18G29   30.02F WCI  28
SALINA         CLEAR     38  18  44 NW18      30.19R WCI  28
TOPEKA BILLARD CLOUDY    41  21  44 NW16G26   30.05F
TOPEKA FORBES  CLOUDY    42  22  44 NW24G31   30.04F
$$




USA.gov is the U.S. government's official web portal to all federal, state and local government web resources and services.